Location: Treviso
(45.6669°N, 12.2430°E)
Time: 21:28:17
(UTC+01:00)

ISS - Pass Details

Date: 30 November 2023
Orbit: 415 x 417 km, 51.6° (Epoch: 06 December)

Event Time Altitude Azimuth Distance (km) Brightness Sun altitude
Rises 17:27:33 0° 295° (WNW) 2,361 0.8 -10.0°
Reaches altitude 10° 17:29:46 10° 305° (NW) 1,497 -0.5 -10.4°
Maximum altitude 17:32:53 34° 13° (NNE) 706 -2.9 -10.9°
Enters shadow 17:34:53 18° 70° (ENE) 1,104 -2.3 -11.2°
